Location: Avesnes-lès-Aubert
(50.1980°N, 3.3788°E)
Time: 14:40:00
(UTC+00:00)

Daily predictions for brighter satellites

Satellite Brightness Start Highest point End
(mag) Time Altitude Azimuth Time Altitude Azimuth Time Altitude Azimuth
Atlas Centaur 2 4.4 20:32:19 10° SSW 20:37:20 17° S 20:42:18 10° SE
SL-16 R/B 2.6 20:32:09 10° NNW 20:37:46 57° NE 20:43:21 10° SE
Cosmos 1763 Rocket 3.9 20:33:55 10° NNW 20:39:09 64° WSW 20:44:16 10° S
Cosmos 2369 4.3 20:33:44 10° NW 20:39:20 55° WSW 20:44:53 10° S
ERS-1 Rocket 3.0 20:34:33 10° SSE 20:39:35 79° ENE 20:44:38 10° NNW
RESURS DK-1 3.4 20:37:23 10° NNW 20:41:10 36° NE 20:44:56 10° ESE
Resurs 01 Rocket 4.0 20:38:16 10° SW 20:41:40 22° W 20:45:05 10° NW
Cosmos 2082 Rocket 2.3 20:38:01 10° SSW 20:43:45 87° WNW 20:49:30 10° NNE
Spot 2 Rocket 3.6 20:39:11 10° SSE 20:44:10 67° ENE 20:49:14 10° N
Cosmos 1933 Rocket 3.7 20:41:07 10° N 20:45:35 84° W 20:50:00 10° S
Cosmos 1470 2.9 20:42:32 10° NNW 20:46:12 70° W 20:49:53 10° S
SPOT 5 3.2 20:44:39 10° S 20:48:53 55° W 20:53:11 10° NNW
Cosmos 1300 3.9 20:46:37 10° NNE 20:49:40 26° ENE 20:52:43 10° SE
Cosmos 1908 3.1 20:49:48 10° NNW 20:53:25 84° W 20:57:01 10° S
Cosmos 1346 Rocket 3.9 20:54:46 10° N 20:58:13 29° ENE 21:01:35 10° SE
ATLAS 2AS CENTAUR R/B 3.2 20:53:44 10° NW 21:00:34 56° NE 21:07:07 10° ESE
Cosmos 1674 3.7 20:57:25 10° SSW 21:00:45 43° WNW 21:04:05 10° N
Meteor 1-22 Rocket 4.3 20:56:48 10° N 21:02:24 75° ENE 21:08:12 10° SSE
Ariane Rocket 3.1 21:03:36 10° SSE 21:08:42 83° WSW 21:13:50 10° NNW
Cosmos 1758 3.7 21:05:41 10° N 21:09:28 48° ENE 21:12:54 12° SSE
Cosmos 1842 4.4 21:07:24 10° SSW 21:10:53 41° WNW 21:14:23 10° N
Meteor 1-4 Rocket 4.4 21:10:20 10° E 21:11:01 11° E 21:11:42 10° ENE
Cosmos 1356 Rocket 4.3 21:09:22 11° SSE 21:12:58 33° E 21:16:45 10° NNE
COSMOS 2406 3.8 21:11:20 10° SW 21:17:02 64° WNW 21:22:46 10° NNE
SPOT 3 Rocket 3.7 21:12:31 10° S 21:17:39 77° WSW 21:22:51 10° NNW
Meteor 1-13 Rocket 4.4 21:13:51 10° SSW 21:19:40 84° W 21:25:24 10° N
Cosmos 1707 Rocket 4.2 21:16:10 11° SSE 21:20:04 41° E 21:24:15 10° NNE
SL-27 R/B 3.7 21:19:33 15° SE 21:20:30 17° ESE 21:22:24 10° ENE
ARIANE 5 R/B 4.1 21:17:35 10° ESE 21:21:08 25° ENE 21:24:41 10° N
Cosmos 1980 Rocket 4.2 21:17:33 10° NW 21:21:42 21° W 21:25:51 10° SSW
Cosmos 2322 Rocket 2.3 21:16:42 10° NNW 21:22:24 77° ENE 21:27:28 13° SE
S3M 4.2 21:16:04 10° NNW 21:22:28 80° W 21:28:47 10° S
Spot 1 4.4 21:19:26 10° NNE 21:23:48 54° ESE 21:28:23 10° S
Cosmos 1655 Rocket 4.1 21:23:34 10° S 21:29:54 70° E 21:36:17 10° NNE
Cosmos 2278 4.3 21:25:40 10° NW 21:31:12 52° WSW 21:36:25 11° S
Landsat 5 3.5 21:27:18 10° NNE 21:31:13 59° ESE 21:35:02 11° S
SJ 16-02 2.6 21:28:54 15° SE 21:31:20 23° E 21:34:47 10° NE
Cosmos 1741 Rocket 4.2 21:32:11 10° S 21:37:17 53° ESE 21:42:27 10° NNE
USA 281 3.5 21:32:45 12° SE 21:38:44 61° NE 21:45:12 10° NNW
Cosmos 2266 Rocket 4.3 21:33:20 10° SSW 21:39:39 75° W 21:46:06 10° N
Cosmos 1400 Rocket 2.9 21:35:56 10° SSW 21:39:49 73° WNW 21:43:42 10° N
COSMOS 2428 4.2 21:35:22 10° NNW 21:40:18 29° NE 21:45:13 10° ESE
Cosmos 1733 Rocket 3.0 21:36:20 10° N 21:40:46 82° E 21:44:16 16° SSE
MetOp-A 4.1 21:37:25 14° SSE 21:41:55 86° WSW 21:47:13 10° NNW
GP-B 4.4 21:38:20 10° NNE 21:42:04 26° E 21:44:46 15° SE
Okean 3 3.9 21:39:26 16° SSE 21:42:23 44° E 21:46:22 10° NNE
Terra 3.1 21:38:43 10° SSW 21:43:00 34° W 21:47:18 10° NNW
Cosmos 968 Rocket 3.8 21:41:01 13° S 21:45:20 46° ESE 21:50:17 10° NE
Cosmos 1814 Rocket 4.3 21:40:34 10° NNW 21:45:50 62° ENE 21:50:00 16° SE
SL-4 R/B 2.2 21:43:12 10° W 21:47:06 73° N 21:51:16 10° E
Cosmos 2228 Rocket 3.1 21:44:42 11° S 21:49:06 88° E 21:53:42 10° N
Cosmos 2219 Rocket 2.6 21:45:31 10° NNW 21:51:07 56° NE 21:55:47 15° SE
Cosmos 1908 Rocket 4.4 21:47:57 10° N 21:52:02 38° ENE 21:54:53 17° SE
Cosmos 1315 Rocket 3.7 21:51:04 19° SE 21:53:13 32° E 21:56:49 10° NNE
ATLAS CENTAUR R/B 1.4 21:52:13 17° S 21:54:33 39° ESE 21:57:55 10° NE
Meteor 2-10 Rocket 4.2 21:50:13 10° NNW 21:55:44 56° W 22:00:34 12° S
SeaSat 1 4.5 21:53:17 10° SSW 21:56:43 19° WSW 22:00:10 10° WNW
Cosmos 1953 2.8 21:54:53 10° N 21:58:36 44° ENE 22:00:51 21° SE
Cosmos 1455 2.7 21:58:29 10° N 22:01:49 40° ENE 22:03:41 22° SE
H-2A R/B 3.6 21:59:30 16° SE 22:02:26 35° ENE 22:06:21 10° N
Cosmos 1242 Rocket 3.7 22:04:20 17° ESE 22:04:44 17° E 22:06:39 10° NE
USA 234 3.6 21:59:28 10° ENE 22:06:00 73° NNW 22:12:31 10° WSW
Okean 1-7 3.3 22:04:58 21° SSE 22:07:39 52° E 22:11:52 10° NNE
BREEZE-M DEB (TANK) 3.1 22:06:11 10° W 22:08:12 30° SSW 22:09:06 25° SSE
CZ-2C R/B 3.9 22:04:30 10° NNE 22:08:50 52° E 22:11:36 21° S
Cosmos 2360 Rocket 2.5 22:08:34 10° NW 22:14:10 61° WSW 22:18:06 20° S
ALOS 2 3.9 22:11:53 14° ESE 22:14:52 30° ENE 22:18:43 10° N
RESURS DK-1 3.7 22:15:16 10° NW 22:18:48 29° WSW 22:21:10 17° SSW
Cosmos 2333 Rocket 2.5 22:13:32 10° NW 22:19:12 61° WSW 22:23:08 20° S
SL-14 R/B 4.5 22:17:40 10° SW 22:21:13 37° WNW 22:24:48 10° N
SL-16 R/B 3.6 22:16:46 10° NW 22:21:31 28° WSW 22:25:47 12° SSW
Cosmos 1300 4.4 22:21:23 10° NW 22:24:19 24° W 22:26:54 12° SW
Atlas Centaur 2 4.3 22:20:35 10° SW 22:25:03 16° SSW 22:25:49 15° S
EXPRESS MD2 1.6 22:24:42 10° W 22:26:58 79° S 22:27:54 29° E
OPS 8737 4.0 22:24:41 10° NW 22:27:36 76° SW 22:28:45 34° SSE
SL-08 R/B 4.4 22:25:46 19° S 22:30:16 75° E 22:36:22 10° NNE
BREEZE-M DEB (TANK) 3.8 22:15:13 10° W 22:31:50 84° S 22:35:59 10° E
Aureole 3 4.0 22:30:50 15° SSW 22:33:48 54° WNW 22:38:25 10° N
Cosmos 1346 Rocket 4.4 22:30:43 10° NW 22:33:58 26° W 22:36:35 13° SW
Cosmos 1703 Rocket 3.6 22:32:44 25° S 22:35:16 66° E 22:39:43 10° NNE
Cosmos 1833 4.1 22:30:08 11° SSW 22:35:37 87° ESE 22:41:17 10° NNE
DNEPR-1 R/B 4.4 22:29:21 10° NW 22:36:14 76° SW 22:39:56 22° SSE
Meteor 1-4 Rocket 3.0 22:41:49 21° SW 22:43:27 42° WNW 22:46:21 10° N
Cosmos 839 Rocket 4.3 22:36:52 10° NW 22:43:45 60° WSW 22:47:42 23° SSE
Cosmos 1932 4.4 22:38:31 12° SSW 22:44:26 68° SE 22:50:40 10° NE
Cosmos 2322 3.7 22:40:00 10° NNW 22:45:43 81° ENE 22:49:29 22° SSE
Cosmos 2237 Rocket 3.5 22:41:33 10° NNW 22:46:46 35° NE 22:51:55 10° ESE
BlueWalker 3 3.8 22:50:03 16° ESE 22:50:03 16° ESE 22:51:24 10° E
ATLAS 2AS CENTAUR R/B 3.2 22:44:58 10° NW 22:51:22 44° WSW 22:55:16 22° S
SL-27 R/B 4.0 22:50:57 10° WSW 22:53:17 24° WNW 22:55:39 10° N
Cosmos 2227 Rocket 4.3 22:54:31 10° ESE 22:55:49 11° E 22:57:07 10° E
ARIANE 5 R/B 3.4 22:54:58 22° SSW 22:57:20 41° W 23:01:28 10° NNW
PSLV R/B 4.2 22:56:26 10° N 23:00:25 63° WNW 23:02:51 22° SSW
Okean 2 4.2 23:00:22 18° SW 23:03:02 43° WNW 23:06:54 10° N
Cosmos 2322 Rocket 3.9 23:01:44 10° NW 23:05:50 21° W 23:09:15 12° SW
Cosmos 1570 Rocket 4.1 23:01:01 10° NNW 23:06:21 72° WSW 23:09:22 26° S
PSLV R/B 4.4 23:03:26 10° NNE 23:07:22 36° E 23:08:58 26° SE
Cosmos 1703 4.0 23:06:48 28° SE 23:07:59 35° E 23:11:23 10° NNE
SJ 16-02 2.3 23:05:35 12° SW 23:09:26 43° WNW 23:13:35 10° NNE
Cosmos 1745 Rocket 4.0 23:05:11 22° S 23:09:27 89° E 23:15:52 10° N
Cosmos 1241 Rocket 4.4 23:04:19 10° SW 23:10:31 86° NW 23:16:50 10° NE
COSMOS 2455 3.5 23:08:59 24° SSE 23:11:47 38° ESE 23:17:18 10° NE
Cosmos 2297 Rocket 3.3 23:13:10 21° SE 23:15:32 29° ESE 23:20:19 10° NE
Nadezhda 1 Rocket 4.2 23:11:30 10° NNW 23:17:45 63° W 23:21:42 23° SSW
GP-B 4.2 23:15:16 10° NNW 23:19:20 37° W 23:22:05 18° SW
Cosmos 1408 1.9 23:22:14 51° SSW 23:22:53 87° WNW 23:25:53 10° N
USA 281 4.2 23:19:37 19° SSW 23:23:33 34° WSW 23:29:28 10° NW
COSMOS 2428 2.8 23:19:22 10° NNW 23:25:02 67° WSW 23:28:13 26° S
SL-4 R/B 2.0 23:21:59 10° WNW 23:26:02 88° N 23:30:21 10° ESE
GEOS 3 Rocket 4.2 23:24:39 10° NE 23:29:27 38° ESE 23:31:28 27° SSE
Cosmos 1782 Rocket 4.3 23:28:11 10° NNW 23:32:16 41° W 23:34:15 25° SW
ATLAS CENTAUR R/B 3.0 23:29:11 10° W 23:32:17 28° NW 23:35:30 10° NNE
Cosmos 1953 4.4 23:31:32 10° NW 23:34:04 17° W 23:35:58 12° WSW
Cosmos 2219 Rocket 3.4 23:29:56 10° NW 23:34:45 29° WSW 23:37:28 20° SSW
Cosmos 1455 4.2 23:33:47 10° NW 23:35:55 16° W 23:37:24 13° WSW
Cosmos 1242 Rocket 3.9 23:35:32 17° WSW 23:36:39 21° WNW 23:38:53 10° NNW
Cosmos 2208 Rocket 4.3 23:31:59 10° NNW 23:37:03 53° WSW 23:39:34 28° S
H-2A R/B 3.9 23:35:29 21° SW 23:37:23 29° W 23:41:08 10° NW
Cosmos 1892 3.9 23:38:13 22° ESE 23:39:17 26° E 23:42:17 10° NNE
Cosmos 158 Rocket 4.3 23:34:20 10° NNW 23:39:33 54° WSW 23:42:07 28° S
Cosmos 371 Rocket 3.4 23:38:59 30° S 23:41:15 62° ESE 23:46:01 10° NNE
BREEZE-M DEB (TANK) 4.0 23:39:04 10° W 23:42:41 83° S 23:55:14 10° E
Cosmos 773 Rocket 3.9 23:41:48 10° NNW 23:46:58 82° WSW 23:49:51 27° SSE
NOSS 8 (E) 4.3 23:45:42 36° SSW 23:47:00 70° SE 23:50:07 10° NE
Cosmos 2151 Rocket 3.8 23:43:26 10° N 23:47:50 65° ENE 23:50:04 28° SSE
USA 234 4.2 23:42:21 10° ENE 23:48:37 50° N 23:54:52 10° WNW
ALOS 2 3.6 23:49:16 24° SW 23:51:08 35° W 23:55:12 10° NNW
GENESIS II 4.1 23:49:40 26° SW 23:51:35 74° NW 23:55:14 10° NE
Cosmos 2263 Rocket 4.3 23:51:27 10° ESE 23:53:28 12° E 23:55:29 10° ENE
Cosmos 1503 Rocket 4.2 23:51:55 28° S 23:54:42 63° ESE 23:59:57 10° NNE
Okean 2 Rocket 3.2 23:50:42 10° N 23:55:10 70° ENE 23:57:29 28° SSE
